Kenner, LA

3:36 PM CDT on August 24, 2016 (GMT -0500)
New Orleans International

Weather History for KMSY - November, 2013

Change the Weather History Date:

Wednesday, November 13, 2013

  Actual Average Record
Temperature  
Mean Temperature 46 °F -  
Max Temperature 55 °F 70 °F 83 °F (1955)
Min Temperature 37 °F 49 °F 28 °F (1968)
Degree Days  
Heating Degree Days 19    
Moisture  
Dew Point 27 °F    
Average Humidity 45    
Maximum Humidity 60    
Minimum Humidity 26    
Precipitation  
Precipitation 0.00 in - - ()
Sea Level Pressure  
Sea Level Pressure 30.47 in    
Wind  
Wind Speed 18 mph (NE)    
Max Wind Speed 25 mph    
Max Gust Speed 34 mph    
Visibility 10 miles    
Events      
Averages and records for this station are not official NWS values.
T = Trace of Precipitation, MM = Missing Value Source: NWS Daily Summary

Daily Weather History Graph

Daily Weather History Graph

Search for Another Location

Airport or City:

Trip Planner

Search our weather history database for the weather conditions in past years. The results will help you decide how hot, cold, wet, or windy it might be!

Date:

Astronomy

Nov. 13, 2013 Rise Set
Actual Time 6:24 AM CST 5:05 PM CST
Civil Twilight 5:59 AM CST 5:30 PM CST
Nautical Twilight 5:30 AM CST 5:59 PM CST
Astronomical Twilight 5:02 AM CST 6:28 PM CST
Moon 2:39 PM CST (11/13) 2:34 AM CST (11/13)
Length of Visible Light 11h 31m
Length of Day
10h 41m
Waxing Gibbous, 85% of the Moon is Illuminated
Nov 13
Waxing Gibbous
Nov 17
Full
Nov 25
Last Quarter
Dec 2
New
Dec 9
First Quarter

Hourly Weather History & Observations

Time (CST) Temp. Windchill Dew Point Humidity Pressure Visibility Wind Dir Wind Speed Gust Speed Precip Events Conditions
12:53 AM 44.1 °F 35.2 °F 30.9 °F 60% 30.48 in 10.0 mi NNE 23.0 mph 28.8 mph N/A   Scattered Clouds
1:53 AM 43.0 °F 34.5 °F 30.0 °F 60% 30.47 in 10.0 mi NNE 19.6 mph 34.5 mph N/A   Mostly Cloudy
2:53 AM 42.1 °F 33.1 °F 28.0 °F 58% 30.48 in 10.0 mi NNE 20.7 mph 32.2 mph N/A   Mostly Cloudy
3:53 AM 41.0 °F 30.7 °F 27.0 °F 57% 30.48 in 10.0 mi NNE 25.3 mph 29.9 mph N/A   Scattered Clouds
4:53 AM 39.0 °F 28.8 °F 26.1 °F 60% 30.49 in 10.0 mi NNE 21.9 mph 31.1 mph N/A   Partly Cloudy
5:53 AM 39.0 °F 28.5 °F 26.1 °F 60% 30.51 in 10.0 mi NNE 23.0 mph - N/A   Partly Cloudy
6:53 AM 39.0 °F 29.6 °F 26.1 °F 60% 30.52 in 10.0 mi NE 18.4 mph 28.8 mph N/A   Scattered Clouds
7:53 AM 39.9 °F 29.5 °F 25.0 °F 55% 30.53 in 10.0 mi NE 24.2 mph 33.4 mph N/A   Mostly Cloudy
8:53 AM 42.1 °F 33.3 °F 26.1 °F 53% 30.54 in 10.0 mi NE 19.6 mph - N/A   Scattered Clouds
9:53 AM 45.0 °F 37.9 °F 27.0 °F 49% 30.53 in 10.0 mi NE 16.1 mph - N/A   Scattered Clouds
10:53 AM 48.0 °F - 28.9 °F 48% 30.52 in 10.0 mi NNE 12.7 mph - N/A   Scattered Clouds
11:53 AM 50.0 °F - 28.0 °F 43% 30.49 in 10.0 mi NNE 17.3 mph 23.0 mph N/A   Mostly Cloudy
12:53 PM 52.0 °F - 28.9 °F 41% 30.46 in 10.0 mi NNE 12.7 mph 21.9 mph N/A   Mostly Cloudy
1:53 PM 54.0 °F - 28.0 °F 37% 30.44 in 10.0 mi NNE 15.0 mph 21.9 mph N/A   Mostly Cloudy
2:53 PM 55.9 °F - 27.0 °F 33% 30.43 in 10.0 mi NE 13.8 mph - N/A   Mostly Cloudy
3:53 PM 55.9 °F - 27.0 °F 33% 30.42 in 10.0 mi NNE 16.1 mph - N/A   Mostly Cloudy
4:53 PM 54.0 °F - 27.0 °F 35% 30.42 in 10.0 mi NE 10.4 mph - N/A   Clear
5:53 PM 53.1 °F - 28.0 °F 38% 30.43 in 10.0 mi NE 10.4 mph - N/A   Scattered Clouds
6:53 PM 52.0 °F - 27.0 °F 38% 30.45 in 10.0 mi ENE 10.4 mph - N/A   Mostly Cloudy
7:53 PM 51.1 °F - 27.0 °F 39% 30.45 in 10.0 mi ENE 8.1 mph - N/A   Mostly Cloudy
8:53 PM 51.1 °F - 26.1 °F 38% 30.46 in 10.0 mi ENE 9.2 mph - N/A   Mostly Cloudy
9:53 PM 50.0 °F - 25.0 °F 38% 30.45 in 10.0 mi ENE 8.1 mph - N/A   Mostly Cloudy
10:53 PM 50.0 °F - 27.0 °F 41% 30.43 in 10.0 mi ENE 6.9 mph - N/A   Mostly Cloudy
11:53 PM 48.9 °F - 27.0 °F 43% 30.41 in 10.0 mi ENE 8.1 mph - N/A   Mostly Cloudy